Time,TemperatureF,DewpointF,PressureIn,WindDirection,WindDirectionDegrees,WindSpeedMPH,WindSpeedGustMPH,Humidity,HourlyPrecipIn,Conditions,Clouds,dailyrainin,SoftwareType,DateUTC
2015-07-06 00:14:00,80.1,72.6,30.05,South,180,2.2,-999.0,78,-99.99,,,0.00,Acu-Link.com,2015-07-06 04:14:00,
2015-07-06 00:33:00,80.4,72.9,30.04,East,90,2.2,-999.0,78,-99.99,,,0.00,Acu-Link.com,2015-07-06 04:33:00,
2015-07-06 00:48:00,80.6,73.1,30.03,SSW,202,2.2,-999.0,78,-99.99,,,0.00,Acu-Link.com,2015-07-06 04:48:00,
2015-07-06 01:04:00,80.4,72.9,30.02,West,270,1.7,-999.0,78,-99.99,,,0.00,Acu-Link.com,2015-07-06 05:04:00,
2015-07-06 01:19:00,80.4,72.9,30.01,South,180,1.1,-999.0,78,-99.99,,,0.00,Acu-Link.com,2015-07-06 05:19:00,
2015-07-06 01:34:00,80.1,72.6,30.01,West,270,2.2,-999.0,78,-99.99,,,0.00,Acu-Link.com,2015-07-06 05:34:00,
2015-07-06 01:49:00,80.1,72.6,30.01,SSW,202,0.0,-999.0,78,-99.99,,,0.00,Acu-Link.com,2015-07-06 05:49:00,
2015-07-06 02:05:00,79.9,72.4,30.00,NW,315,1.1,-999.0,78,-99.99,,,0.00,Acu-Link.com,2015-07-06 06:05:00,
2015-07-06 02:20:00,79.9,72.4,29.99,North,0,1.1,-999.0,78,-99.99,,,0.00,Acu-Link.com,2015-07-06 06:20:00,
2015-07-06 02:36:00,79.7,72.2,29.98,West,270,0.0,-999.0,78,-99.99,,,0.00,Acu-Link.com,2015-07-06 06:36:00,
2015-07-06 02:52:00,79.7,72.2,29.97,NNE,22,2.7,-999.0,78,-99.99,,,0.00,Acu-Link.com,2015-07-06 06:52:00,
2015-07-06 03:07:00,79.7,72.2,29.96,SSW,202,0.0,-999.0,78,-99.99,,,0.00,Acu-Link.com,2015-07-06 07:07:00,
2015-07-06 03:22:00,78.8,71.3,29.96,ESE,112,2.2,-999.0,78,-99.99,,,0.00,Acu-Link.com,2015-07-06 07:22:00,
2015-07-06 03:37:00,79.9,72.4,29.95,SSE,157,0.0,-999.0,78,-99.99,,,0.00,Acu-Link.com,2015-07-06 07:37:00,
2015-07-06 03:54:00,80.2,72.7,29.95,SSE,157,1.1,-999.0,78,-99.99,,,0.00,Acu-Link.com,2015-07-06 07:54:00,
2015-07-06 04:09:00,81.1,73.6,29.94,NE,45,3.2,-999.0,78,-99.99,,,0.00,Acu-Link.com,2015-07-06 08:09:00,
2015-07-06 04:25:00,80.8,73.3,29.93,ESE,112,4.2,-999.0,78,-99.99,,,0.00,Acu-Link.com,2015-07-06 08:25:00,
2015-07-06 04:45:00,81.7,74.2,29.92,North,0,4.2,-999.0,78,-99.99,,,0.00,Acu-Link.com,2015-07-06 08:45:00,
2015-07-06 05:00:00,82.0,74.4,29.92,NE,45,2.7,-999.0,78,-99.99,,,0.00,Acu-Link.com,2015-07-06 09:00:00,
2015-07-06 05:15:00,82.8,75.2,29.91,ESE,112,5.3,-999.0,78,-99.99,,,0.00,Acu-Link.com,2015-07-06 09:15:00,
2015-07-06 05:31:00,83.7,76.1,29.91,ESE,112,3.2,-999.0,78,-99.99,,,0.00,Acu-Link.com,2015-07-06 09:31:00,
2015-07-06 05:46:00,83.3,75.7,29.91,NNW,337,1.7,-999.0,78,-99.99,,,0.00,Acu-Link.com,2015-07-06 09:46:00,
2015-07-06 06:01:00,84.2,76.6,29.91,NE,45,3.7,-999.0,78,-99.99,,,0.00,Acu-Link.com,2015-07-06 10:01:00,
2015-07-06 06:16:00,83.8,76.2,29.92,SW,225,1.1,-999.0,78,-99.99,,,0.00,Acu-Link.com,2015-07-06 10:16:00,
2015-07-06 06:31:00,83.1,75.5,29.93,SW,225,0.0,-999.0,78,-99.99,,,0.00,Acu-Link.com,2015-07-06 10:31:00,
2015-07-06 06:46:00,83.1,75.5,29.93,SW,225,0.0,-999.0,78,-99.99,,,0.00,Acu-Link.com,2015-07-06 10:46:00,
2015-07-06 07:01:00,83.1,75.5,29.95,SW,225,1.7,-999.0,78,-99.99,,,0.00,Acu-Link.com,2015-07-06 11:01:00,
2015-07-06 07:16:00,83.1,75.5,29.96,SSW,202,3.2,-999.0,78,-99.99,,,0.00,Acu-Link.com,2015-07-06 11:16:00,
2015-07-06 07:31:00,83.1,75.5,29.98,SSW,202,1.7,-999.0,78,-99.99,,,0.00,Acu-Link.com,2015-07-06 11:31:00,
2015-07-06 07:47:00,83.3,75.7,29.97,NNE,22,1.1,-999.0,78,-99.99,,,0.00,Acu-Link.com,2015-07-06 11:47:00,
2015-07-06 08:02:00,83.3,75.7,29.98,West,270,0.0,-999.0,78,-99.99,,,0.00,Acu-Link.com,2015-07-06 12:02:00,
2015-07-06 08:17:00,83.3,75.7,29.98,West,270,1.7,-999.0,78,-99.99,,,0.00,Acu-Link.com,2015-07-06 12:17:00,
2015-07-06 08:32:00,83.7,76.1,29.99,SW,225,1.7,-999.0,78,-99.99,,,0.00,Acu-Link.com,2015-07-06 12:32:00,